| time (UTC) | temp C | wind direction | speed KPH | gust KPH | rain 1hr cm | rain 24hr cm | rain mn cm | humidity % | barometer mb |
| 20260506135525 | 21 | 95 | 6.4 | 9.7 | 0.00 | 0.00 | 0.00 | 55 | 1005.2 |
| 20260506134428 | 21 | 94 | 11.3 | 17.7 | 0.00 | 0.00 | 0.00 | 54 | 1005.3 |
| 20260506133445 | 21 | 13 | 9.7 | 16.1 | 0.00 | 0.00 | 0.00 | 52 | 1005.4 |
| 20260506132443 | 21 | 72 | 6.4 | 6.4 | 0.00 | 0.00 | 0.00 | 52 | 1005.2 |
| 20260506131443 | 21 | 93 | 11.3 | 17.7 | 0.00 | 0.00 | 0.00 | 54 | 1005.9 |
| 20260506130442 | 22 | 88 | 8.0 | 14.5 | 0.00 | 0.00 | 0.00 | 51 | 1005.8 |
| 20260506125439 | 22 | 54 | 8.0 | 11.3 | 0.00 | 0.00 | 0.00 | 51 | 1006.0 |
| 20260506124436 | 22 | 20 | 8.0 | 11.3 | 0.00 | 0.00 | 0.00 | 52 | 1006.2 |
| 20260506123433 | 21 | 338 | 9.7 | 12.9 | 0.00 | 0.00 | 0.00 | 56 | 1006.5 |
| 20260506122429 | 21 | 40 | 4.8 | 6.4 | 0.00 | 0.00 | 0.00 | 53 | 1006.4 |
| 20260506121449 | 21 | 255 | 0.0 | 1.6 | 0.00 | 0.00 | 0.00 | 58 | 1006.5 |
| 20260506120448 | 21 | 84 | 11.3 | 14.5 | 0.00 | 0.00 | 0.00 | 60 | 1006.7 |
| 20260506115427 | 20 | 28 | 4.8 | 11.3 | 0.00 | 0.00 | 0.00 | 61 | 1006.9 |
| 20260506114446 | 20 | 30 | 9.7 | 14.5 | 0.00 | 0.00 | 0.00 | 60 | 1007.0 |
| 20260506113445 | 19 | 7 | 6.4 | 6.4 | 0.00 | 0.00 | 0.00 | 64 | 1007.2 |
| 20260506112444 | 19 | 99 | 12.9 | 24.1 | 0.00 | 0.00 | 0.00 | 67 | 1007.3 |
| 20260506111441 | 18 | 81 | 9.7 | 16.1 | 0.00 | 0.00 | 0.00 | 67 | 1007.5 |
| 20260506110438 | 18 | 61 | 6.4 | 11.3 | 0.00 | 0.00 | 0.00 | 64 | 1007.7 |
| 20260506105434 | 18 | 93 | 8.0 | 11.3 | 0.00 | 0.00 | 0.00 | 69 | 1007.9 |
| 20260506104430 | 17 | 53 | 3.2 | 4.8 | 0.00 | 0.00 | 0.00 | 70 | 1008.1 |
| 20260506103428 | 17 | 84 | 4.8 | 6.4 | 0.00 | 0.00 | 0.00 | 71 | 1008.1 |
| 20260506102428 | 17 | 98 | 6.4 | 6.4 | 0.00 | 0.00 | 0.00 | 70 | 1008.1 |
| 20260506101428 | 17 | 101 | 4.8 | 4.8 | 0.00 | 0.00 | 0.00 | 71 | 1008.4 |
| 20260506100427 | 17 | 96 | 3.2 | 4.8 | 0.00 | 0.00 | 0.00 | 70 | 1008.5 |
| 20260506095428 | 17 | 71 | 1.6 | 3.2 | 0.00 | 0.00 | 0.00 | 69 | 1008.5 |
| 20260506094504 | 17 | 88 | 12.9 | 17.7 | 0.00 | 0.00 | 0.00 | 68 | 1008.6 |
| 20260506093501 | 17 | 74 | 6.4 | 11.3 | 0.00 | 0.00 | 0.00 | 67 | 1008.8 |
| 20260506092442 | 17 | 94 | 6.4 | 6.4 | 0.00 | 0.00 | 0.00 | 69 | 1008.7 |
| 20260506091515 | 16 | 84 | 3.2 | 4.8 | 0.00 | 0.00 | 0.00 | 69 | 1009.1 |
| 20260506090434 | 16 | 88 | 12.9 | 16.1 | 0.00 | 0.00 | 0.00 | 70 | 1008.9 |
| 20260506085431 | 16 | 80 | 4.8 | 9.7 | 0.00 | 0.00 | 0.00 | 70 | 1008.9 |
| 20260506084428 | 16 | 81 | 3.2 | 4.8 | 0.00 | 0.00 | 0.00 | 68 | 1009.3 |
| 20260506083427 | 16 | 109 | 4.8 | 4.8 | 0.00 | 0.00 | 0.00 | 69 | 1009.1 |
| 20260506082428 | 16 | 46 | 4.8 | 6.4 | 0.00 | 0.00 | 0.00 | 69 | 1009.2 |
| 20260506081427 | 16 | 323 | 3.2 | 4.8 | 0.00 | 0.00 | 0.00 | 67 | 1009.1 |
| 20260506080426 | 16 | 332 | 6.4 | 9.7 | 0.00 | 0.00 | 0.00 | 70 | 1008.9 |
| 20260506073439 | 15 | 108 | 4.8 | 4.8 | 0.00 | 0.00 | 0.00 | 69 | 1009.6 |
| 20260506072435 | 16 | 82 | 4.8 | 6.4 | 0.00 | 0.00 | 0.00 | 68 | 1009.6 |
| 20260506071431 | 15 | 45 | 3.2 | 3.2 | 0.00 | 0.00 | 0.00 | 69 | 1009.5 |
| 20260506070429 | 16 | 60 | 4.8 | 9.7 | 0.00 | 0.00 | 0.00 | 70 | 1009.5 |
| 20260506062427 | 15 | 141 | 3.2 | 4.8 | 0.00 | 0.00 | 0.00 | 72 | 1009.9 |
| 20260506061446 | 15 | 0.0 | 0.0 | 0.00 | 0.00 | 0.00 | 70 | 1009.8 | |
| 20260506060442 | 16 | 0.0 | 0.0 | 0.00 | 0.00 | 0.00 | 68 | 1009.9 | |
| 20260506050428 | 13 | 159 | 1.6 | 3.2 | 0.00 | 0.00 | 0.00 | 74 | 1010.3 |
| 20260506044427 | 16 | 167 | 3.2 | 3.2 | 0.00 | 0.00 | 0.00 | 68 | 1010.1 |
| 20260506043427 | 15 | 177 | 1.6 | 3.2 | 0.00 | 0.00 | 0.00 | 71 | 1010.0 |
| 20260506042447 | 15 | 177 | 3.2 | 3.2 | 0.00 | 0.00 | 0.00 | 74 | 1010.2 |
| 20260506041442 | 13 | 183 | 3.2 | 3.2 | 0.00 | 0.00 | 0.00 | 76 | 1010.2 |
| 20260506040439 | 12 | 185 | 3.2 | 4.8 | 0.00 | 0.00 | 0.00 | 77 | 1010.6 |
| 20260506035436 | 12 | 228 | 3.2 | 4.8 | 0.00 | 0.00 | 0.00 | 78 | 1010.2 |
| 20260506034433 | 12 | 293 | 3.2 | 3.2 | 0.00 | 0.00 | 0.00 | 78 | 1010.2 |
| 20260506033450 | 12 | 293 | 4.8 | 6.4 | 0.00 | 0.00 | 0.00 | 77 | 1010.6 |
| 20260506032448 | 12 | 199 | 1.6 | 3.2 | 0.00 | 0.00 | 0.00 | 76 | 1010.3 |
| 20260506031447 | 12 | 198 | 1.6 | 3.2 | 0.00 | 0.00 | 0.00 | 74 | 1010.4 |
| 20260506030427 | 13 | 0.0 | 0.0 | 0.00 | 0.00 | 0.00 | 73 | 1010.1 | |
| 20260506025428 | 13 | 224 | 1.6 | 1.6 | 0.00 | 0.00 | 0.00 | 73 | 1010.0 |
| 20260506024428 | 13 | 259 | 3.2 | 4.8 | 0.00 | 0.00 | 0.00 | 73 | 1010.2 |
| 20260506023445 | 13 | 215 | 8.0 | 12.9 | 0.00 | 0.00 | 0.00 | 73 | 1010.1 |
| 20260506022441 | 13 | 210 | 4.8 | 4.8 | 0.00 | 0.00 | 0.00 | 75 | 1010.3 |
| 20260506021458 | 13 | 225 | 4.8 | 6.4 | 0.00 | 0.00 | 0.00 | 76 | 1010.2 |
| 20260506020436 | 12 | 187 | 4.8 | 6.4 | 0.00 | 0.00 | 0.00 | 76 | 1010.2 |
| 20260506015432 | 13 | 187 | 3.2 | 3.2 | 0.00 | 0.00 | 0.00 | 76 | 1010.1 |
| 20260506014430 | 13 | 184 | 3.2 | 4.8 | 0.00 | 0.00 | 0.00 | 76 | 1010.4 |
| 20260506013508 | 13 | 218 | 3.2 | 3.2 | 0.00 | 0.00 | 0.00 | 76 | 1010.5 |
| 20260506012427 | 13 | 229 | 1.6 | 1.6 | 0.00 | 0.00 | 0.00 | 73 | 1010.9 |
| 20260506011427 | 13 | 226 | 4.8 | 9.7 | 0.00 | 0.00 | 0.00 | 74 | 1010.8 |
| 20260506010446 | 14 | 238 | 1.6 | 1.6 | 0.00 | 0.00 | 0.00 | 73 | 1011.0 |
| 20260506005507 | 14 | 281 | 6.4 | 6.4 | 0.00 | 0.00 | 0.00 | 72 | 1010.9 |
| 20260506004445 | 14 | 289 | 8.0 | 16.1 | 0.00 | 0.00 | 0.00 | 72 | 1010.8 |
| 20260506003439 | 14 | 293 | 9.7 | 14.5 | 0.00 | 0.00 | 0.00 | 73 | 1010.8 |
| 20260506002456 | 14 | 278 | 6.4 | 11.3 | 0.00 | 0.00 | 0.00 | 72 | 1010.8 |
| 20260506001435 | 14 | 275 | 9.7 | 14.5 | 0.00 | 0.00 | 0.00 | 73 | 1010.8 |
| 20260506000431 | 14 | 275 | 9.7 | 14.5 | 0.00 | 0.00 | 0.00 | 74 | 1010.8 |
| 20260505235427 | 14 | 298 | 9.7 | 17.7 | 0.00 | 0.00 | 0.00 | 73 | 1010.9 |
| 20260505234428 | 14 | 297 | 17.7 | 25.7 | 0.00 | 0.00 | 0.00 | 73 | 1010.7 |
| 20260505233448 | 15 | 295 | 17.7 | 27.4 | 0.00 | 0.00 | 0.00 | 74 | 1010.7 |
| 20260505232427 | 15 | 287 | 12.9 | 16.1 | 0.00 | 0.00 | 0.00 | 73 | 1010.5 |
| 20260505231427 | 15 | 278 | 14.5 | 25.7 | 0.00 | 0.00 | 0.00 | 72 | 1010.4 |
| 20260505230443 | 14 | 283 | 12.9 | 17.7 | 0.00 | 0.00 | 0.00 | 73 | 1010.2 |
| 20260505225442 | 14 | 285 | 9.7 | 14.5 | 0.00 | 0.00 | 0.00 | 74 | 1010.0 |
| 20260505224437 | 13 | 297 | 12.9 | 20.9 | 0.00 | 0.00 | 0.00 | 76 | 1009.8 |
| 20260505223435 | 13 | 270 | 9.7 | 14.5 | 0.00 | 0.00 | 0.00 | 74 | 1009.7 |
| 20260505222432 | 14 | 300 | 8.0 | 9.7 | 0.00 | 0.00 | 0.00 | 72 | 1009.6 |
| 20260505221512 | 15 | 287 | 4.8 | 4.8 | 0.00 | 0.00 | 0.00 | 69 | 1009.5 |
| 20260505220427 | 15 | 263 | 1.6 | 3.2 | 0.00 | 0.00 | 0.00 | 70 | 1009.3 |
| 20260505215426 | 15 | 266 | 1.6 | 3.2 | 0.00 | 0.00 | 0.00 | 70 | 1009.2 |
| 20260505214428 | 15 | 245 | 3.2 | 4.8 | 0.00 | 0.00 | 0.00 | 71 | 1009.1 |
| 20260505213427 | 15 | 267 | 4.8 | 6.4 | 0.00 | 0.00 | 0.00 | 71 | 1009.0 |
| 20260505212445 | 15 | 271 | 3.2 | 4.8 | 0.00 | 0.00 | 0.00 | 72 | 1009.0 |
| 20260505211442 | 15 | 289 | 6.4 | 9.7 | 0.00 | 0.00 | 0.00 | 72 | 1008.9 |
| 20260505210442 | 15 | 303 | 6.4 | 11.3 | 0.00 | 0.00 | 0.00 | 72 | 1009.0 |
| 20260505205436 | 15 | 288 | 6.4 | 9.7 | 0.00 | 0.00 | 0.00 | 71 | 1008.7 |
| 20260505204434 | 15 | 283 | 6.4 | 6.4 | 0.00 | 0.00 | 0.00 | 70 | 1008.8 |
| 20260505203433 | 15 | 284 | 8.0 | 9.7 | 0.00 | 0.00 | 0.00 | 69 | 1008.6 |
| 20260505202427 | 15 | 297 | 6.4 | 9.7 | 0.00 | 0.00 | 0.00 | 69 | 1008.3 |
| 20260505201428 | 15 | 285 | 6.4 | 11.3 | 0.00 | 0.00 | 0.00 | 69 | 1008.3 |
| 20260505200449 | 16 | 286 | 6.4 | 9.7 | 0.00 | 0.00 | 0.00 | 69 | 1008.2 |
| 20260505195430 | 16 | 286 | 8.0 | 9.7 | 0.00 | 0.00 | 0.00 | 68 | 1008.1 |
| 20260505194427 | 16 | 283 | 6.4 | 9.7 | 0.00 | 0.00 | 0.00 | 68 | 1008.1 |
| 20260505193443 | 16 | 286 | 6.4 | 11.3 | 0.00 | 0.00 | 0.00 | 68 | 1008.2 |
| 20260505192440 | 16 | 294 | 12.9 | 20.9 | 0.00 | 0.00 | 0.00 | 68 | 1008.0 |
| 20260505191437 | 16 | 296 | 3.2 | 3.2 | 0.00 | 0.00 | 0.00 | 68 | 1008.0 |
| 20260505190434 | 16 | 288 | 4.8 | 6.4 | 0.00 | 0.00 | 0.00 | 67 | 1007.8 |
| 20260505185431 | 16 | 278 | 9.7 | 14.5 | 0.00 | 0.00 | 0.00 | 66 | 1007.4 |
| 20260505184428 | 16 | 291 | 11.3 | 14.5 | 0.00 | 0.00 | 0.00 | 66 | 1007.1 |
| 20260505183454 | 16 | 283 | 14.5 | 27.4 | 0.00 | 0.00 | 0.00 | 67 | 1006.9 |
| 20260505182450 | 16 | 285 | 12.9 | 22.5 | 0.00 | 0.00 | 0.00 | 67 | 1006.8 |
| 20260505181445 | 16 | 249 | 19.3 | 29.0 | 0.00 | 0.00 | 0.00 | 68 | 1006.5 |
| 20260505180453 | 16 | 302 | 16.1 | 27.4 | 0.00 | 0.00 | 0.00 | 68 | 1006.8 |
| 20260505175444 | 17 | 292 | 20.9 | 29.0 | 0.00 | 0.00 | 0.00 | 65 | 1006.5 |
| 20260505174508 | 19 | 285 | 27.4 | 48.3 | 0.00 | 0.00 | 0.00 | 58 | 1006.1 |
| 20260505173505 | 21 | 0.0 | 0.0 | 0.00 | 0.00 | 0.00 | 46 | 1005.3 | |
| 20260505172451 | 21 | 276 | 3.2 | 4.8 | 0.00 | 0.00 | 0.00 | 46 | 1005.3 |
| 20260505171447 | 21 | 244 | 1.6 | 3.2 | 0.00 | 0.00 | 0.00 | 46 | 1005.2 |
| 20260505170447 | 22 | 0.0 | 0.0 | 0.00 | 0.00 | 0.00 | 46 | 1005.2 | |
| 20260505165442 | 22 | 0.0 | 0.0 | 0.00 | 0.00 | 0.00 | 46 | 1005.3 | |
| 20260505164426 | 22 | 144 | 3.2 | 3.2 | 0.00 | 0.00 | 0.00 | 46 | 1005.3 |
| 20260505163428 | 23 | 132 | 0.0 | 1.6 | 0.00 | 0.00 | 0.00 | 46 | 1005.4 |
| 20260505162426 | 23 | 0.0 | 0.0 | 0.00 | 0.00 | 0.00 | 43 | 1005.3 | |
| 20260505161442 | 23 | 0.0 | 0.0 | 0.00 | 0.00 | 0.00 | 41 | 1005.5 | |
| 20260505160444 | 23 | 66 | 1.6 | 3.2 | 0.00 | 0.00 | 0.00 | 43 | 1005.8 |
| 20260505152453 | 23 | 93 | 9.7 | 12.9 | 0.00 | 0.00 | 0.00 | 45 | 1005.9 |
| 20260505151450 | 23 | 95 | 8.0 | 12.9 | 0.00 | 0.00 | 0.00 | 42 | 1005.9 |
| 20260505150448 | 23 | 351 | 4.8 | 9.7 | 0.00 | 0.00 | 0.00 | 42 | 1005.9 |
| 20260505140440 | 24 | 88 | 3.2 | 6.4 | 0.00 | 0.00 | 0.00 | 40 | 1006.6 |